Aeroporto :
LOGIN :

Iscrizione | Disclaimer

   EN    FR    IT 

 










Sommario :    VFR   VFR Marginale   IFR   IFR Intensivo   IFR Molto Intensivo
Visibilità : 
Base nubi : 
>= 8 km
>= 3000ft
5 / 8 km
1000 / 3000 ft
1500m / 5 km
500 / 1000 ft
800 / 1500m
200 / 500 ft
< 800m
< 200 ft
Simboli :   Temporali  Nebbia  Neve Forte  Precipitazioni Forti  Vento > 20 kt
SIGMETs :   Varie  Temporali  Ghiacco  Turbolenza  Onda orograficha  Ceneri Vulcaniche






- Altitudine del aeroporto : 172 ft
- Codice IATA : LPI


ESSL - Saab

ULTIMO METAR :
  • 201950Z 24004KT CAVOK 13/10 Q1018

METARs OBSOLETI :
  • 201920Z AUTO 24004KT 9999 NCD 13/10 Q1018
  • 201850Z AUTO 26004KT 210V300 9999 NCD 13/10 Q1018
  • 201820Z AUTO 24006KT 210V280 9999 NCD 14/10 Q1018
  • 201750Z AUTO 26006KT 230V320 9999 NCD 14/10 Q1019
  • 201720Z AUTO 28006KT 240V310 9999 SCT028/// 14/10 Q1019

Previsioni scadute.



MetMap, La meteo Aeronautica in un colpo d'occhio ! - Copyright ORBIFLY Dicembre 2007 - Disclaimer

ORBIFLY MET'MAP TEAM :

Programmazione e sviluppo : Alexandra Zaïnal
Concezione : Baudouin d'Aumeries
Aiuto per la programmazione : Marc-Olivier Méhu
Supporto tecnico e logistico : Manuel Goepfert
Aiuto per la traduzione : Arnaldo La Scala

Contatto : metmap@orbifly.com




FONTI E CREDITI :

   NOAA